Temp
-9 -9 -10 -10 -9 -8 -7 -7 -8 -8 -7 -7 -7 -7 -8 -8 -8 -8 -8 -8 -8 -8 -8 -9 -9 -9 -10 -9 -10 -10 -10 -10 -9 -10 -9 -10 -10 -9 -9 -9 -9 -9 -9 -9 -9 -9 -9 -9 -9
-9 -10 -10 -9 -8 -8 -8 -8 -8 -8 -8 -8 -8 -8 -8 -8 -8 -8 -8 -8 -8 -8 -9 -9 -9 -10 -10 -10 -10 -10 -10 -10 -10 -10 -10 -10 -10 -10 -10 -10 -10 -10 -10 -9 -9 -9 -9 -9 -9
-9 -9 -9 -10 -9 -8 -8 -8 -8 -9 -9 -9 -9 -9 -8 -9 -9 -8 -8 -8 -9 -9 -9 -9 -9 -9 -9 -10 -10 -10 -10 -10 -10 -10 -10 -10 -10 -10 -10 -10 -10 -10 -10 -10 -10 -10 -10 -9 -9
-9 -9 -10 -9 -9 -9 -9 -9 -9 -9 -9 -9 -9 -9 -9 -9 -9 -9 -9 -9 -10 -9 -9 -10 -10 -10 -10 -10 -10 -10 -10 -11 -10 -10 -10 -10 -11 -11 -11 -11 -10 -10 -10 -10 -10 -10 -10 -10 -10
-9 -10 -9 -9 -9 -9 -9 -9 -9 -10 -9 -9 -10 -9 -9 -8 -9 -9 -9 -9 -10 -10 -10 -10 -10 -10 -10 -10 -10 -11 -11 -11 -11 -11 -11 -11 -11 -11 -11 -11 -11 -11 -11 -10 -10 -10 -10 -10 -10
-9 -9 -9 -9 -9 -9 -9 -9 -10 -10 -10 -10 -10 -9 -9 -9 -9 -9 -10 -10 -11 -11 -11 -10 -10 -10 -10 -10 -10 -10 -10 -11 -11 -11 -11 -11 -11 -11 -11 -11 -10 -10 -11 -10 -10 -10 -10 -10 -10
-9 -9 -9 -9 -9 -10 -9 -9 -9 -10 -10 -11 -10 -10 -10 -9 -9 -11 -11 -11 -11 -11 -11 -11 -11 -11 -10 -10 -10 -10 -10 -11 -11 -11 -11 -11 -11 -11 -11 -11 -11 -11 -11 -11 -10 -10 -10 -10 -10
-9 -9 -9 -9 -9 -10 -9 -10 -10 -10 -11 -11 -11 -10 -10 -10 -11 -11 -11 -11 -10 -11 -11 -11 -11 -12 -11 -11 -10 -10 -10 -10 -10 -11 -11 -11 -11 -11 -11 -11 -11 -11 -10 -11 -11 -11 -11 -10 -10
-9 -9 -9 -10 -10 -10 -10 -10 -10 -11 -11 -11 -11 -11 -11 -11 -11 -10 -10 -11 -10 -10 -11 -11 -11 -11 -11 -10 -10 -11 -11 -11 -11 -11 -11 -11 -11 -11 -11 -11 -11 -11 -11 -11 -11 -11 -11 -11 -11
-9 -9 -10 -10 -10 -10 -11 -11 -11 -11 -11 -12 -12 -11 -11 -11 -11 -11 -11 -11 -11 -11 -10 -11 -11 -11 -11 -10 -10 -10 -11 -11 -11 -11 -11 -11 -11 -11 -11 -11 -11 -11 -11 -11 -11 -11 -10 -10 -10
-9 -9 -10 -10 -10 -10 -10 -11 -11 -11 -11 -12 -12 -11 -11 -11 -11 -11 -11 -11 -11 -11 -11 -11 -11 -11 -11 -11 -11 -10 -11 -12 -12 -11 -11 -11 -11 -11 -12 -11 -11 -11 -11 -11 -11 -11 -10 -10 -10
-10 -10 -10 -10 -11 -11 -10 -10 -11 -11 -11 -12 -12 -12 -11 -12 -11 -11 -11 -11 -11 -11 -11 -11 -11 -11 -11 -11 -11 -11 -12 -12 -11 -11 -11 -11 -11 -11 -11 -11 -11 -11 -11 -11 -11 -11 -11 -11 -11
-10 -10 -10 -10 -10 -11 -11 -11 -11 -11 -11 -11 -11 -12 -12 -12 -12 -12 -11 -11 -11 -11 -11 -11 -11 -11 -12 -11 -12 -12 -11 -11 -11 -11 -12 -11 -11 -11 -11 -11 -11 -11 -11 -11 -11 -11 -11 -11 -11
-10 -10 -10 -10 -10 -10 -10 -10 -11 -11 -11 -11 -11 -11 -12 -12 -12 -12 -12 -11 -11 -11 -11 -11 -11 -11 -11 -11 -11 -11 -11 -10 -10 -11 -11 -11 -11 -10 -10 -10 -10 -10 -11 -11 -11 -11 -11 -11 -11
-10 -10 -9 -10 -10 -10 -10 -10 -11 -11 -11 -11 -11 -11 -12 -12 -12 -12 -12 -12 -12 -12 -11 -11 -11 -11 -11 -11 -11 -11 -11 -11 -11 -11 -11 -11 -11 -11 -11 -11 -11 -11 -11 -12 -12 -12 -11 -11 -11
-10 -10 -10 -10 -10 -10 -11 -11 -11 -11 -11 -11 -11 -11 -11 -12 -11 -12 -12 -12 -12 -12 -12 -11 -11 -11 -11 -11 -11 -11 -11 -11 -11 -11 -12 -12 -11 -12 -12 -12 -12 -12 -12 -12 -12 -11 -11 -11 -11
-10 -10 -10 -11 -11 -11 -11 -11 -11 -11 -11 -11 -11 -11 -11 -11 -12 -12 -12 -12 -12 -12 -12 -12 -11 -11 -11 -12 -12 -11 -12 -12 -12 -12 -12 -12 -12 -12 -12 -12 -12 -12 -12 -12 -11 -12 -12 -11 -12
-10 -10 -10 -10 -10 -10 -10 -11 -11 -11 -11 -11 -11 -11 -11 -11 -12 -12 -12 -12 -12 -12 -12 -12 -12 -12 -12 -12 -12 -12 -12 -12 -12 -12 -12 -12 -12 -12 -12 -12 -12 -12 -12 -12 -12 -12 -12 -12 -12
-10 -10 -10 -10 -10 -10 -10 -11 -11 -11 -11 -11 -11 -11 -11 -11 -12 -12 -12 -12 -12 -12 -12 -13 -13 -12 -12 -12 -13 -13 -13 -13 -12 -12 -12 -12 -12 -12 -12 -12 -12 -12 -12 -12 -12 -12 -12 -12 -12
-10 -10 -10 -10 -10 -10 -10 -10 -10 -10 -10 -10 -11 -11 -11 -11 -12 -12 -12 -12 -12 -12 -13 -13 -13 -12 -12 -12 -12 -12 -13 -12 -12 -12 -12 -12 -12 -13 -12 -13 -13 -13 -13 -13 -13 -13 -13 -12 -13
-10 -10 -10 -10 -10 -9 -9 -9 -10 -10 -10 -11 -11 -11 -11 -12 -12 -12 -12 -12 -13 -13 -13 -13 -13 -12 -12 -12 -12 -12 -12 -12 -12 -12 -12 -13 -13 -13 -13 -13 -13 -13 -13 -13 -13 -13 -13 -13 -13
-11 -11 -10 -10 -10 -10 -9 -9 -10 -10 -11 -11 -12 -12 -12 -12 -12 -12 -12 -13 -13 -13 -13 -12 -12 -12 -12 -12 -13 -13 -13 -13 -13 -13 -13 -13 -14 -14 -13 -13 -13 -14 -14 -14 -14 -13 -13 -13 -13
-11 -11 -11 -10 -10 -10 -10 -10 -10 -11 -11 -11 -12 -12 -12 -12 -13 -13 -13 -13 -13 -12 -12 -12 -12 -12 -12 -13 -13 -13 -13 -13 -13 -14 -14 -14 -14 -14 -14 -14 -14 -14 -14 -14 -14 -14 -14 -14 -14
-11 -11 -10 -10 -10 -10 -10 -10 -11 -11 -11 -11 -12 -12 -12 -13 -13 -13 -13 -12 -12 -12 -12 -12 -12 -12 -13 -13 -13 -13 -14 -14 -14 -14 -14 -14 -14 -15 -15 -15 -15 -15 -15 -14 -14 -14 -14 -15 -15
-11 -11 -11 -11 -10 -10 -10 -10 -11 -11 -11 -11 -12 -12 -12 -12 -12 -12 -12 -12 -13 -13 -12 -12 -12 -13 -13 -13 -13 -13 -14 -14 -14 -14 -14 -14 -14 -15 -15 -15 -15 -15 -15 -14 -14 -14 -15 -15 -16
-11 -10 -10 -10 -10 -11 -11 -11 -11 -11 -11 -11 -12 -12 -12 -12 -12 -12 -13 -13 -13 -12 -12 -12 -12 -13 -13 -13 -13 -14 -14 -14 -14 -14 -14 -14 -14 -14 -15 -15 -15 -15 -15 -15 -15 -15 -16 -17 -17
-11 -11 -11 -11 -10 -10 -10 -10 -11 -11 -11 -11 -12 -12 -12 -12 -12 -12 -13 -13 -13 -12 -12 -12 -13 -13 -13 -13 -13 -14 -14 -14 -14 -14 -14 -14 -15 -15 -15 -15 -15 -16 -15 -15 -16 -16 -17 -17 -17
-11 -11 -11 -11 -10 -10 -10 -10 -11 -11 -11 -12 -12 -12 -13 -13 -13 -13 -13 -13 -13 -13 -12 -13 -13 -13 -13 -13 -14 -14 -14 -14 -14 -15 -15 -15 -15 -15 -15 -16 -16 -16 -15 -16 -17 -17 -17 -18 -18
-12 -12 -12 -11 -11 -11 -10 -11 -11 -11 -12 -12 -12 -13 -13 -13 -13 -14 -13 -13 -13 -13 -13 -13 -13 -13 -13 -14 -14 -14 -15 -15 -15 -15 -16 -16 -16 -16 -16 -16 -16 -16 -16 -17 -18 -18 -18 -18 -18
-12 -12 -12 -11 -11 -11 -11 -11 -11 -12 -12 -13 -13 -13 -13 -13 -13 -14 -13 -14 -13 -13 -13 -13 -13 -13 -14 -14 -14 -15 -15 -16 -16 -16 -17 -17 -16 -16 -16 -17 -16 -16 -16 -18 -18 -18 -18 -18 -18
Height
5924 5924 5925 5923 5926 5921 5919 5919 5918 5917 5916 5914 5914 5913 5913 5913 5912 5913 5910 5909 5908 5907 5906 5905 5905 5904 5903 5902 5901 5900 5899 5898 5897 5897 5896 5895 5895 5894 5893 5892 5892 5892 5891 5890 5890 5890 5890 5890 5889
5925 5927 5927 5926 5926 5922 5922 5920 5920 5919 5918 5917 5916 5915 5914 5914 5913 5912 5911 5910 5909 5908 5906 5906 5905 5904 5903 5902 5901 5900 5899 5898 5897 5896 5895 5894 5893 5893 5892 5890 5889 5889 5889 5888 5886 5886 5887 5886 5887
5927 5928 5929 5928 5927 5924 5922 5920 5920 5921 5919 5918 5916 5916 5915 5915 5915 5913 5912 5911 5910 5909 5907 5906 5905 5905 5903 5902 5901 5899 5899 5898 5897 5896 5895 5894 5893 5891 5890 5890 5888 5887 5886 5885 5884 5883 5882 5882 5883
5928 5930 5931 5930 5928 5926 5924 5922 5921 5922 5921 5918 5916 5915 5915 5915 5913 5912 5911 5910 5909 5908 5907 5906 5906 5904 5903 5902 5900 5899 5898 5897 5896 5895 5893 5892 5891 5890 5888 5888 5887 5885 5884 5883 5882 5881 5880 5879 5879
5930 5932 5931 5931 5929 5928 5925 5923 5922 5922 5921 5919 5917 5915 5915 5915 5912 5910 5909 5908 5906 5906 5906 5906 5905 5903 5903 5902 5900 5898 5897 5896 5895 5894 5892 5890 5889 5888 5887 5885 5885 5883 5881 5880 5879 5878 5876 5875 5875
5932 5933 5933 5932 5930 5928 5926 5925 5923 5922 5921 5919 5917 5915 5915 5912 5909 5906 5905 5905 5906 5907 5907 5906 5904 5903 5902 5901 5899 5897 5895 5894 5891 5891 5890 5888 5886 5885 5884 5882 5881 5881 5878 5876 5875 5874 5873 5871 5870
5933 5934 5934 5932 5930 5929 5928 5926 5925 5922 5921 5919 5917 5915 5914 5910 5906 5904 5903 5903 5903 5904 5904 5904 5903 5903 5902 5900 5899 5897 5895 5892 5891 5888 5887 5884 5883 5881 5879 5877 5877 5876 5874 5872 5871 5870 5868 5866 5865
5934 5935 5935 5932 5931 5930 5928 5927 5925 5923 5922 5920 5917 5916 5915 5912 5909 5907 5905 5904 5904 5903 5902 5901 5900 5900 5899 5898 5896 5895 5894 5891 5889 5886 5884 5881 5879 5879 5876 5874 5872 5869 5869 5867 5866 5864 5863 5861 5859
5935 5936 5934 5933 5932 5931 5929 5928 5926 5925 5923 5921 5919 5918 5916 5914 5911 5909 5906 5904 5902 5902 5901 5901 5900 5898 5897 5895 5894 5892 5891 5888 5886 5884 5881 5877 5875 5874 5872 5869 5867 5865 5862 5861 5859 5859 5857 5855 5853
5935 5935 5934 5933 5933 5931 5930 5930 5928 5926 5924 5922 5920 5918 5917 5915 5912 5910 5907 5904 5903 5901 5900 5899 5899 5897 5895 5893 5892 5889 5887 5885 5882 5879 5876 5873 5871 5870 5869 5866 5862 5860 5857 5855 5853 5850 5849 5847 5846
5934 5935 5934 5934 5933 5933 5931 5930 5929 5927 5925 5924 5921 5919 5917 5916 5914 5911 5908 5906 5903 5901 5900 5899 5897 5895 5893 5890 5888 5886 5884 5880 5877 5874 5872 5870 5867 5865 5863 5859 5856 5853 5851 5848 5845 5842 5840 5838 5836
5934 5934 5935 5935 5934 5933 5932 5931 5930 5929 5927 5924 5922 5920 5918 5916 5914 5911 5908 5906 5904 5902 5900 5898 5895 5893 5891 5887 5885 5882 5879 5875 5872 5868 5867 5865 5863 5860 5857 5853 5850 5847 5844 5841 5838 5835 5832 5828 5825
5933 5934 5933 5934 5933 5933 5932 5932 5930 5930 5928 5925 5923 5921 5919 5916 5914 5911 5908 5905 5902 5900 5898 5895 5893 5890 5887 5884 5881 5877 5873 5870 5866 5863 5862 5861 5858 5855 5851 5847 5843 5839 5835 5832 5829 5827 5824 5821 5817
5933 5933 5933 5933 5933 5932 5932 5931 5929 5929 5928 5926 5923 5921 5918 5916 5913 5910 5908 5905 5901 5897 5895 5892 5888 5886 5884 5880 5877 5873 5870 5866 5862 5859 5857 5855 5851 5847 5843 5839 5835 5831 5826 5822 5819 5815 5811 5808 5804
5933 5933 5933 5932 5932 5932 5931 5930 5929 5928 5928 5926 5924 5921 5918 5915 5913 5910 5906 5903 5899 5896 5893 5890 5887 5883 5880 5876 5873 5869 5865 5861 5858 5855 5852 5848 5844 5840 5836 5831 5827 5822 5818 5814 5810 5805 5800 5796 5791
5933 5933 5932 5931 5931 5930 5930 5929 5927 5926 5926 5925 5922 5921 5918 5915 5911 5908 5904 5900 5896 5893 5890 5886 5882 5879 5876 5872 5868 5864 5859 5855 5852 5848 5845 5840 5834 5830 5826 5821 5817 5812 5808 5803 5799 5794 5788 5783 5777
5932 5932 5931 5930 5929 5928 5927 5927 5925 5925 5923 5922 5919 5918 5916 5912 5909 5905 5901 5897 5893 5889 5886 5882 5877 5873 5868 5864 5861 5857 5853 5849 5844 5840 5835 5830 5825 5820 5815 5809 5805 5800 5797 5792 5787 5782 5777 5771 5764
5932 5931 5930 5929 5927 5925 5924 5923 5923 5922 5921 5919 5916 5914 5911 5908 5905 5901 5897 5893 5889 5885 5880 5876 5872 5867 5863 5859 5855 5850 5846 5842 5838 5832 5826 5820 5816 5810 5805 5800 5794 5789 5784 5778 5772 5768 5763 5758 5751
5930 5929 5928 5927 5925 5923 5922 5920 5920 5918 5917 5915 5913 5909 5907 5904 5901 5897 5893 5889 5884 5879 5875 5871 5867 5862 5857 5852 5848 5844 5840 5836 5829 5824 5819 5814 5808 5802 5796 5790 5784 5777 5771 5765 5760 5755 5749 5743 5737
5928 5927 5925 5924 5923 5921 5919 5918 5916 5915 5913 5911 5908 5906 5904 5901 5897 5894 5889 5885 5880 5875 5871 5866 5862 5857 5852 5847 5842 5838 5833 5829 5823 5817 5810 5804 5797 5789 5782 5776 5770 5765 5759 5753 5746 5742 5737 5730 5724
5925 5925 5923 5921 5919 5917 5915 5914 5912 5911 5908 5907 5905 5902 5900 5897 5893 5889 5885 5881 5876 5870 5865 5861 5857 5851 5846 5841 5837 5833 5827 5821 5815 5807 5799 5790 5783 5776 5769 5763 5758 5752 5747 5741 5735 5728 5723 5717 5710
5923 5922 5919 5917 5915 5913 5912 5912 5909 5907 5905 5902 5900 5897 5896 5893 5889 5884 5881 5876 5870 5865 5861 5856 5850 5844 5839 5835 5829 5825 5818 5811 5804 5796 5788 5780 5772 5765 5758 5752 5745 5739 5733 5727 5722 5715 5709 5702 5695
5921 5918 5916 5913 5912 5910 5908 5907 5905 5904 5901 5899 5896 5893 5891 5888 5884 5879 5875 5869 5865 5861 5856 5849 5844 5839 5833 5828 5822 5815 5808 5800 5792 5784 5777 5770 5762 5754 5746 5739 5733 5727 5720 5714 5708 5702 5695 5687 5681
5917 5914 5913 5911 5909 5907 5905 5905 5903 5901 5899 5896 5893 5890 5886 5883 5878 5873 5869 5864 5860 5854 5849 5843 5837 5831 5825 5819 5813 5806 5798 5790 5783 5776 5768 5759 5750 5742 5734 5727 5720 5714 5708 5701 5694 5687 5679 5672 5665
5914 5912 5911 5910 5907 5905 5903 5903 5900 5898 5895 5893 5889 5886 5882 5877 5872 5867 5863 5858 5854 5849 5843 5837 5831 5825 5818 5812 5805 5797 5790 5783 5775 5767 5757 5748 5740 5732 5723 5716 5709 5701 5695 5687 5680 5672 5664 5657 5651
5911 5910 5908 5905 5905 5904 5901 5900 5897 5895 5892 5889 5886 5882 5877 5872 5867 5863 5857 5853 5848 5843 5836 5830 5824 5817 5811 5804 5797 5790 5783 5774 5765 5755 5747 5739 5730 5721 5712 5704 5696 5689 5682 5674 5666 5658 5650 5644 5637
5909 5907 5906 5904 5903 5900 5898 5897 5894 5891 5888 5885 5881 5876 5871 5866 5861 5857 5852 5848 5842 5837 5830 5823 5817 5811 5804 5797 5789 5780 5772 5763 5754 5745 5736 5728 5718 5710 5701 5692 5685 5677 5670 5662 5654 5647 5640 5633 5625
5907 5905 5903 5900 5899 5897 5895 5892 5890 5887 5884 5880 5876 5871 5866 5862 5857 5852 5848 5842 5836 5830 5824 5818 5811 5804 5796 5788 5779 5770 5761 5752 5743 5733 5724 5715 5706 5698 5689 5681 5673 5666 5658 5651 5643 5637 5631 5624 5617
5904 5901 5899 5897 5895 5892 5890 5890 5884 5881 5878 5875 5870 5865 5861 5857 5852 5847 5841 5836 5829 5823 5817 5811 5803 5796 5788 5779 5769 5759 5750 5739 5729 5719 5710 5702 5694 5686 5678 5670 5662 5655 5648 5640 5635 5630 5624 5618 5612
5900 5898 5896 5894 5892 5889 5886 5886 5880 5876 5871 5867 5863 5859 5855 5850 5845 5840 5835 5829 5823 5816 5809 5802 5795 5787 5778 5768 5758 5747 5736 5726 5716 5707 5697 5689 5681 5673 5666 5659 5651 5644 5638 5632 5629 5624 5619 5614 5609
Wind_Speed
15 17 13 14 11 16 16 22 20 21 21 21 18 19 19 17 14 11 9 7 5 5 4 4 5 5 4 5 4 4 5 6 7 8 9 10 11 12 14 15 15 15 15 15 15 15 14 14 15
17 17 16 15 12 15 16 16 21 22 22 23 22 21 19 16 12 11 9 9 8 7 6 5 4 2 4 5 6 6 5 6 7 8 8 9 11 12 12 12 13 15 15 16 15 15 15 14 15
15 15 9 10 10 15 18 16 18 21 21 22 25 22 19 16 12 8 7 7 7 6 4 5 6 7 6 5 6 6 8 9 9 10 10 11 11 12 13 13 12 11 12 13 13 13 13 14 14
18 15 10 9 15 15 16 18 18 15 13 13 17 19 19 19 15 10 6 5 10 10 5 6 6 6 6 5 6 7 9 10 11 10 11 11 13 14 14 14 14 14 15 16 16 17 18 18 17
18 12 8 11 11 13 17 18 21 18 16 16 12 15 18 21 19 14 10 11 10 6 7 9 8 9 6 8 9 9 10 11 12 14 14 14 14 15 15 15 17 18 18 20 21 22 22 23 22
12 10 11 9 10 10 14 18 22 22 17 16 14 16 21 22 23 16 7 10 8 6 8 10 10 9 8 13 14 15 14 14 16 17 18 18 18 18 18 18 20 21 20 22 24 25 26 26 26
14 12 11 9 14 14 15 19 21 22 19 20 18 22 24 27 22 15 15 9 7 4 6 10 13 13 15 15 15 16 16 16 16 17 18 19 20 21 20 20 22 24 23 23 26 27 28 28 28
12 6 6 8 17 19 20 24 22 22 19 20 19 23 24 23 20 15 13 11 7 6 7 5 6 9 11 12 14 16 18 18 18 19 18 17 18 20 20 20 21 21 23 24 26 29 30 31 31
2 4 6 12 16 20 23 25 25 23 22 22 20 22 22 20 19 15 16 17 19 11 3 5 9 10 11 12 13 16 19 21 22 23 23 23 23 23 24 25 25 26 27 29 31 32 32 33 34
2 2 11 13 13 17 22 23 24 21 23 20 19 20 18 19 24 27 25 24 18 14 10 9 13 14 16 17 18 18 18 20 22 24 24 25 25 24 25 27 28 30 30 32 32 34 35 35 35
4 5 9 14 10 14 17 19 24 26 23 15 16 17 15 17 22 24 26 25 21 18 17 12 12 15 20 23 25 25 20 20 22 25 25 25 25 26 28 30 30 29 30 33 34 35 37 38 39
2 3 10 9 9 11 14 17 22 25 26 13 12 13 15 15 19 22 25 26 24 21 18 16 16 18 21 26 27 27 22 24 29 25 22 23 27 27 28 31 30 31 31 32 34 36 39 42 44
2 5 2 7 5 7 9 11 17 21 24 11 10 12 14 15 16 19 22 24 25 24 22 20 19 21 23 24 22 24 24 27 29 25 22 26 28 29 31 32 33 33 33 34 35 37 40 43 45
8 8 7 2 2 3 6 10 14 18 20 21 10 10 14 16 18 16 21 23 24 26 27 25 23 24 24 25 26 26 25 27 26 29 29 31 34 36 37 37 37 36 35 37 39 42 43 45 48
5 8 11 8 10 4 8 12 12 16 19 19 13 13 14 16 16 16 20 24 24 28 30 28 26 26 27 27 28 28 27 30 31 32 31 34 36 38 38 38 37 36 37 38 41 44 45 49 50
7 9 7 9 8 10 12 12 12 15 18 21 14 14 16 17 16 17 22 24 29 30 31 33 32 30 29 28 29 29 28 31 33 33 36 38 40 41 41 39 38 38 40 42 43 45 46 51 52
13 10 5 1 5 8 12 13 15 17 21 23 22 22 23 19 18 20 21 25 31 35 34 35 36 35 34 33 33 32 33 33 34 39 40 41 42 42 42 42 42 42 44 45 44 45 48 50 52
15 12 15 17 16 16 17 18 18 20 22 24 20 23 25 20 20 23 26 28 35 37 36 38 39 37 36 35 34 34 33 33 37 40 42 45 46 46 45 44 44 45 46 47 47 49 51 51 54
16 15 16 20 22 22 21 21 22 25 23 23 24 23 21 19 23 27 28 33 38 39 39 39 41 37 36 36 33 33 33 36 41 44 46 47 47 48 47 46 46 48 49 50 50 51 52 53 54
18 18 19 22 21 21 21 22 20 17 17 15 14 15 17 20 23 26 30 35 37 38 41 40 43 38 38 38 37 36 39 40 45 45 45 46 47 47 48 48 48 49 51 52 53 52 51 54 56
19 20 25 22 20 20 21 19 18 16 12 13 14 17 18 20 23 28 32 34 38 39 42 43 40 39 38 38 35 36 39 42 43 43 45 46 48 49 49 49 49 48 49 51 53 53 53 54 57
19 20 19 19 18 20 17 14 13 14 15 18 20 19 18 21 27 31 33 37 38 42 43 40 38 36 35 34 33 35 37 39 41 43 44 46 47 48 48 50 49 50 50 50 51 51 53 57 55
12 13 15 17 16 20 17 15 15 16 19 21 20 22 24 29 33 34 36 39 39 39 38 35 35 32 31 33 36 36 37 39 40 42 43 46 47 49 49 49 50 52 51 49 49 52 55 56 53
9 13 15 17 18 17 16 15 15 18 21 20 22 25 29 33 35 35 35 35 36 34 32 33 33 34 35 36 36 37 37 38 39 41 43 46 48 50 49 49 49 50 51 48 49 55 57 54 49
11 13 17 19 18 18 16 16 20 21 18 19 23 26 29 31 32 32 32 33 32 31 32 34 35 34 33 34 36 39 41 43 45 46 47 47 48 51 51 50 50 49 49 49 51 56 53 49 46
15 16 18 19 15 15 18 18 17 16 19 22 24 26 28 27 29 28 30 32 32 33 34 34 33 34 36 39 44 45 47 49 50 50 51 51 50 51 52 51 51 50 49 50 54 51 48 45 47
15 16 16 15 15 15 15 16 17 20 21 23 26 26 26 26 27 29 31 33 35 36 35 36 36 36 41 43 47 50 52 54 54 55 54 54 54 53 53 51 51 50 51 52 48 46 43 44 39
14 15 18 19 20 18 18 20 20 23 24 26 28 27 24 24 25 28 33 37 37 37 37 38 36 41 48 50 53 54 56 57 56 56 56 55 52 51 51 50 49 49 51 47 44 40 40 34 29
18 23 25 26 25 24 24 23 28 29 29 31 30 26 24 25 30 35 36 41 38 38 38 40 42 47 50 54 56 59 61 59 58 57 55 53 51 50 51 49 47 48 47 42 37 34 31 23 20
21 23 26 27 27 25 25 24 28 33 36 34 29 24 26 29 32 36 39 38 38 40 41 45 48 52 55 59 61 60 61 61 60 59 57 53 50 51 49 47 46 43 41 34 30 29 24 18 18
Wind_Direction
97 83 83 58 59 73 82 75 83 69 74 71 68 73 69 68 63 68 81 65 48 38 26 337 321 334 330 326 330 355 5 359 351 347 345 345 337 332 326 319 316 313 307 305 302 298 293 288 283
107 92 86 71 58 71 73 77 81 80 76 76 72 69 65 58 52 52 48 39 21 16 11 347 333 333 329 327 342 345 335 337 343 352 356 359 357 355 344 332 324 318 314 310 305 299 295 292 289
125 105 91 71 61 71 81 87 88 79 75 69 60 54 55 51 47 51 61 46 27 360 340 323 328 348 340 341 356 339 343 342 346 340 340 340 336 335 333 333 333 331 328 326 319 312 306 301 293
135 111 88 90 73 76 78 78 78 69 53 48 47 48 42 29 15 7 9 32 353 333 334 324 325 322 317 336 325 328 326 324 326 325 329 332 331 328 323 322 319 318 319 318 313 312 309 313 304
141 115 96 106 79 71 72 72 69 55 47 45 52 41 23 15 10 5 342 345 337 335 332 336 325 311 311 319 309 304 309 310 308 310 309 306 305 304 302 305 305 304 306 304 304 300 301 300 301
132 117 117 97 84 77 72 66 68 56 49 46 40 27 16 10 6 350 58 56 49 9 338 334 333 328 308 316 317 315 312 311 312 308 302 299 298 295 294 296 295 295 297 298 298 298 297 296 294
128 123 110 77 78 83 74 71 61 59 51 45 36 32 25 15 24 73 85 82 75 60 20 354 345 329 318 325 324 326 320 315 311 306 299 300 299 297 295 294 290 290 292 292 291 290 290 289 287
143 136 103 82 78 79 76 68 62 60 54 45 33 33 31 30 57 69 64 42 15 31 8 13 15 351 339 333 333 324 318 314 309 310 306 305 303 297 297 294 296 299 298 300 298 297 295 293 291
132 128 92 86 82 78 68 60 60 56 50 46 37 37 39 53 49 36 34 25 20 22 6 353 3 350 339 338 328 320 317 315 310 308 308 305 301 301 302 303 302 303 302 300 297 294 293 293 292
144 46 108 96 73 73 69 57 55 49 47 48 42 36 51 53 52 48 42 37 27 16 349 342 342 337 329 318 311 308 305 304 304 299 298 296 296 299 297 298 299 299 298 298 298 297 295 293 290
75 57 110 91 68 57 57 58 56 44 47 51 49 32 60 56 53 53 48 39 30 21 13 350 339 328 320 315 313 305 311 307 299 293 293 294 298 296 295 294 294 295 296 296 297 297 297 297 295
97 75 111 94 71 40 42 52 54 42 41 58 49 33 49 45 43 40 36 34 33 22 5 349 327 313 314 311 307 298 299 293 299 303 293 294 297 298 296 297 297 294 295 295 295 294 296 298 298
331 340 140 144 87 50 31 28 41 40 32 42 25 30 35 40 25 23 22 17 19 17 10 355 338 324 319 314 304 297 300 302 307 316 307 296 301 301 298 298 295 296 293 292 296 295 294 291 293
319 316 317 283 182 24 10 7 19 32 18 21 9 12 23 23 20 11 7 6 7 4 357 351 350 338 325 324 313 305 296 308 308 314 308 301 304 301 302 300 297 293 292 293 295 301 301 301 303
288 316 318 345 358 340 344 359 0 14 3 16 14 3 8 1 8 0 353 350 354 350 348 346 344 339 330 322 317 301 300 302 296 304 300 302 299 299 301 298 295 293 295 296 298 302 302 304 305
299 319 338 337 334 344 333 344 346 353 347 354 355 356 342 339 345 348 344 339 345 341 339 338 342 338 330 322 320 312 309 302 300 304 310 305 306 306 302 299 297 295 296 295 294 303 303 305 308
287 286 300 285 301 313 316 326 333 336 332 335 337 330 330 318 330 336 335 335 337 336 334 336 338 334 330 324 320 318 316 310 305 312 307 303 305 305 305 303 300 299 297 293 298 303 304 305 305
269 260 271 276 279 288 303 320 322 320 317 316 314 312 314 302 319 323 327 327 332 332 331 332 334 332 327 322 317 318 316 311 308 304 302 304 304 303 303 302 299 298 298 299 304 304 304 304 306
253 267 280 290 290 301 305 305 305 308 311 308 301 300 299 297 310 317 322 325 327 327 324 326 328 327 324 323 318 315 306 299 302 302 302 301 303 303 301 301 303 304 303 301 301 303 304 306 305
264 268 283 287 293 298 299 302 310 308 308 309 307 299 291 297 307 313 315 317 320 320 318 319 321 319 325 321 315 311 306 303 304 305 305 306 306 306 306 307 306 303 301 300 300 302 304 303 305
281 290 295 295 298 301 304 307 310 320 328 329 308 295 296 307 312 311 312 314 317 313 313 316 317 318 321 315 311 307 309 308 307 307 308 309 309 308 306 303 300 299 299 298 298 300 303 303 305
295 296 301 304 304 314 314 314 322 325 322 323 318 308 308 310 311 310 313 312 308 310 316 318 322 321 317 315 313 313 311 311 311 312 313 310 308 306 303 300 300 299 298 299 300 301 303 304 303
294 298 310 316 312 314 319 326 330 328 322 318 311 306 304 311 314 312 310 307 310 313 318 324 321 322 325 322 320 318 317 316 317 317 315 311 309 308 306 302 302 302 300 300 302 303 303 303 301
297 299 307 325 323 313 312 316 326 323 319 316 310 308 309 310 309 307 308 313 322 327 325 323 326 327 326 320 321 325 326 325 325 324 322 319 317 314 308 304 302 303 301 303 304 305 305 303 301
296 303 313 310 312 309 313 317 315 318 318 315 311 313 311 308 306 310 322 330 333 334 329 329 329 326 324 329 331 331 330 328 325 325 326 327 323 317 314 308 306 306 306 306 307 308 306 303 301
302 308 313 312 315 310 312 314 317 319 322 320 316 312 309 310 311 322 333 335 334 330 328 329 327 327 330 331 330 330 327 325 324 325 323 321 322 320 317 312 310 311 310 309 312 309 306 305 307
317 313 312 311 314 316 322 328 332 328 326 329 330 327 318 315 321 325 326 329 326 323 324 324 326 333 333 329 328 328 327 324 322 320 318 317 318 318 318 314 314 313 312 314 313 308 307 312 311
319 323 325 328 327 322 325 329 330 331 330 331 328 328 322 316 323 323 327 324 322 320 323 322 322 323 326 325 325 323 322 319 315 314 315 314 315 314 315 315 315 313 315 317 310 310 317 316 314
315 322 325 329 330 326 323 333 329 333 331 329 326 323 320 314 317 317 317 321 317 318 321 325 324 323 322 323 322 319 319 315 313 313 313 312 313 311 312 314 313 317 320 311 310 320 322 324 322
308 310 311 314 318 316 317 331 326 328 326 325 319 317 319 321 323 322 317 314 317 321 326 322 322 323 324 323 323 319 318 316 315 313 312 312 311 311 312 314 318 323 314 310 316 322 323 325 329